Dewpoint
50 50 50 50 52 53 53 53 51 51 50 50 50 50 51 51 51 46 43 42 39 35 36 37 37 35 36 35 33 33 29 30 35 30 29 30 31 31 33 33 34 27 25 25 26 24 20 33 41 41 40 36 41 42
50 50 50 51 51 53 53 53 51 51 51 50 50 50 50 51 51 48 41 44 44 39 35 39 39 39 37 36 35 36 32 32 34 35 36 35 37 38 35 29 37 30 34 33 26 27 33 37 37 37 35 37 38 39
49 51 51 50 50 52 53 52 51 51 50 50 50 50 50 51 51 50 46 44 41 37 37 36 36 38 40 40 40 36 37 36 39 39 35 33 32 38 35 38 37 41 41 39 37 36 39 43 44 46 45 45 46 47
49 50 50 50 51 52 52 52 51 50 51 51 51 50 51 52 52 51 48 46 45 43 37 34 38 38 39 39 39 38 37 41 41 40 35 34 32 35 34 36 34 37 39 39 41 41 44 46 44 41 41 44 51 52
49 50 51 51 51 52 52 52 51 51 51 51 51 51 51 51 52 51 48 48 46 42 37 37 38 39 39 39 39 39 38 37 38 37 35 34 36 35 35 36 35 36 37 40 38 44 42 43 40 38 38 48 46 49
50 50 51 51 51 52 52 52 52 51 51 51 51 51 51 52 52 47 41 47 49 46 41 36 38 38 39 38 37 37 37 37 39 37 35 37 37 34 32 31 29 33 35 36 33 38 37 35 36 37 44 35 38 46
49 50 50 51 52 52 52 52 52 51 51 51 51 52 52 52 49 43 40 46 50 49 42 37 32 34 38 40 39 38 38 37 38 36 35 36 37 39 33 28 30 33 30 33 35 33 31 28 35 32 32 32 43 46
49 50 51 51 52 52 51 52 51 51 51 51 51 52 52 52 51 48 48 49 50 46 42 33 32 34 40 38 38 40 36 37 40 37 37 36 38 41 35 32 32 32 30 30 31 31 30 30 30 29 31 40 40 44
50 50 51 51 52 51 51 51 50 51 51 51 51 51 48 49 46 45 50 51 48 45 37 36 34 30 41 39 44 45 43 38 40 36 35 39 36 35 33 32 33 34 33 33 35 36 35 34 34 34 35 35 42 44
50 51 51 52 52 51 51 51 51 52 52 52 47 43 41 45 51 51 49 44 44 44 43 38 39 34 39 41 40 42 44 39 36 38 40 37 33 33 33 34 34 34 34 34 35 35 35 34 32 35 37 42 43 44
50 51 51 51 51 51 51 51 51 52 47 44 43 44 47 50 48 45 41 40 39 37 40 40 39 37 43 37 38 42 40 41 36 36 36 36 33 33 34 34 34 34 35 34 36 36 35 40 39 38 39 40 41 43
51 51 51 51 51 51 51 51 51 46 42 44 44 44 44 41 40 38 38 40 38 35 38 37 40 41 43 44 39 41 38 39 34 42 37 34 38 41 41 37 36 35 35 35 36 37 38 37 39 42 41 41 42 44
51 51 51 52 51 50 51 51 51 51 48 44 44 43 42 40 34 34 33 34 35 41 43 43 42 42 42 42 40 41 37 36 43 38 35 37 42 44 44 44 37 37 37 37 37 38 38 39 41 44 44 44 45 46
51 51 52 51 50 50 51 51 51 50 44 40 38 34 37 35 34 36 33 38 44 46 44 44 44 43 43 40 41 38 41 43 38 34 34 40 46 50 46 44 41 36 38 37 37 39 38 42 44 47 48 48 48 50
51 51 51 51 51 51 51 51 51 49 44 40 40 35 36 38 38 39 42 41 44 45 45 43 43 46 43 40 42 41 38 37 39 40 44 47 50 52 46 41 38 37 38 39 39 41 44 47 48 49 50 52 59 68
51 50 50 51 51 51 51 51 49 48 45 42 41 38 40 39 39 40 41 40 43 43 43 43 42 43 41 41 38 37 36 35 40 44 46 49 51 51 52 47 46 46 43 44 45 50 50 49 50 52 55 65 67 69
50 46 50 51 51 50 50 47 46 44 42 41 39 42 41 40 39 40 41 42 45 43 41 42 41 39 44 39 37 40 36 40 44 47 50 52 52 53 54 55 52 51 50 50 51 52 52 53 58 63 65 66 66 68
47 48 50 51 50 47 48 47 44 43 40 41 38 40 41 42 41 41 43 45 45 43 42 41 42 40 40 37 39 43 47 49 50 49 52 52 52 53 55 55 55 56 56 56 54 56 61 62 63 64 64 65 67 66
48 48 49 50 49 47 43 45 45 40 41 42 42 43 43 43 44 44 45 46 47 47 44 42 40 39 40 44 46 47 48 49 49 49 51 52 53 55 56 58 58 59 59 60 60 61 62 62 62 63 63 65 65 65
49 50 50 50 49 45 43 44 46 41 39 42 43 43 44 44 45 45 45 45 45 44 42 41 41 42 42 44 45 46 48 50 51 48 49 52 54 55 55 55 56 58 59 59 59 55 61 61 61 62 62 63 64 63
47 49 50 50 48 46 44 44 43 43 43 42 44 44 43 45 44 44 44 45 43 42 41 43 43 44 46 46 47 46 47 49 49 51 50 51 53 54 54 54 54 56 57 58 57 57 57 60 61 62 62 63 64 62
47 49 48 49 45 45 43 46 43 44 43 43 44 44 42 43 44 45 46 43 42 43 45 45 45 44 46 46 47 48 48 49 51 52 50 51 52 52 52 53 50 53 56 56 57 57 57 59 60 62 62 62 58 58
48 48 46 45 44 42 40 47 42 43 41 42 44 43 43 44 46 46 43 43 44 47 47 47 48 49 48 49 50 49 50 50 51 52 51 52 53 53 52 51 46 53 55 56 57 56 57 52 57 60 60 60 59 57
48 46 44 44 43 40 45 43 45 43 44 43 42 41 43 45 46 44 43 44 47 49 49 49 50 50 50 50 50 50 50 52 52 53 53 53 53 52 53 54 49 51 55 56 57 56 56 57 53 58 57 57 57 56
40 39 42 37 43 43 43 43 42 44 42 43 43 43 44 45 43 41 40 45 47 48 50 50 50 51 50 50 50 50 51 52 52 52 53 53 53 53 55 55 55 55 56 56 56 56 56 56 55 55 54 54 53 52
35 42 39 43 44 43 42 42 41 42 43 42 43 45 46 43 40 40 43 45 47 49 50 51 50 50 50 50 49 49 51 52 52 52 52 55 53 52 54 53 53 54 55 56 55 55 54 54 54 55 55 53 46 51
38 42 45 47 47 46 44 44 44 44 43 39 43 43 42 39 39 43 47 49 49 51 52 53 53 52 50 50 50 51 52 52 53 54 55 54 54 54 53 53 53 53 54 55 55 54 53 53 53 52 52 52 52 51
44 46 43 45 45 46 43 44 44 44 45 46 44 41 38 39 40 45 48 51 52 53 54 55 55 54 53 53 53 54 54 55 55 54 53 53 53 53 53 52 51 45 50 50 52 52 52 51 51 51 51 51 51 52
43 46 47 44 45 45 46 46 47 48 49 47 44 42 44 48 49 49 50 51 51 53 52 52 53 54 54 54 54 54 54 54 51 50 49 49 51 51 52 52 52 51 50 49 44 46 49 49 50 50 50 50 50 50
44 49 46 47 47 45 48 51 50 50 50 49 49 48 48 51 53 50 48 49 51 51 51 50 52 52 51 52 51 52 53 53 53 51 49 50 50 51 52 52 53 52 51 51 51 51 46 49 48 49 48 48 48 48
49 48 47 48 48 50 50 53 52 52 51 50 49 47 46 48 47 47 46 47 49 50 51 51 51 52 51 51 50 50 51 52 52 51 51 50 50 50 51 52 51 52 52 51 51 51 51 50 50 49 49 48 48 47
50 49 48 47 47 51 52 51 49 47 48 48 48 48 46 48 46 48 48 46 46 47 47 48 48 49 50 51 51 52 46 52 52 51 50 51 51 50 49 48 49 49 50 52 51 49 50 50 49 49 48 48 48 48
50 51 50 48 48 47 48 46 45 46 48 47 48 50 50 50 47 48 50 48 47 47 47 48 48 49 49 49 49 48 46 48 45 42 42 42 42 45 46 46 47 48 49 49 48 49 48 48 48 49 48 48 48 47
Lifted_Index
16 16 15 14 13 12 11 11 11 12 11 11 10 10 9 9 9 9 10 11 11 10 10 12 12 12 12 11 11 11 11 10 9 8 7 6 6 6 5 5 5 5 4 3 3 2 3 3 2 1 1 1 1 1
15 15 14 14 13 11 11 10 11 11 11 10 10 9 9 8 8 8 9 10 10 9 9 10 11 12 12 12 11 11 11 10 9 9 8 7 6 6 5 5 5 5 4 4 4 3 3 3 3 2 1 2 1 1
14 14 13 12 12 11 10 10 10 10 10 9 8 8 7 7 7 7 8 9 9 8 7 8 10 11 11 11 11 11 10 10 10 9 9 8 8 7 6 5 6 5 5 5 5 4 4 3 3 3 2 2 2 2
14 13 12 12 11 10 9 9 8 8 8 8 7 7 6 6 6 6 7 8 8 7 6 7 9 10 11 11 11 11 11 11 10 10 10 9 9 9 8 7 7 6 6 5 5 5 4 4 3 2 2 2 2 2
13 12 11 11 10 9 8 8 7 7 7 7 6 6 6 6 6 7 7 8 8 8 6 7 9 10 10 11 11 11 11 11 11 10 10 10 10 10 9 8 8 8 7 6 6 5 5 4 3 2 2 2 2 2
12 12 11 10 9 8 7 7 7 7 7 7 6 6 6 6 7 7 7 8 8 8 7 7 9 10 10 10 10 10 10 10 10 10 10 9 9 9 9 8 8 9 9 9 8 7 6 5 4 2 1 1 2 2
12 11 11 10 9 8 7 7 7 7 7 7 7 7 7 7 7 7 7 8 8 8 8 8 9 10 10 9 9 9 9 9 9 9 9 9 9 9 8 7 8 9 10 10 10 10 9 7 4 2 0 1 2 2
11 11 10 10 9 8 8 8 8 8 8 8 8 8 7 7 7 7 8 8 8 8 8 8 8 8 8 8 8 8 8 8 8 8 8 8 8 8 7 6 8 9 9 10 10 11 10 7 4 1 0 1 2 2
11 10 10 9 9 8 8 8 8 8 8 8 8 8 8 8 7 7 7 8 8 8 8 8 7 6 7 7 7 7 7 7 7 7 7 7 7 6 6 6 6 7 8 9 9 10 10 7 3 1 -0 0 1 2
10 10 9 9 8 8 9 9 9 9 9 8 8 8 8 8 7 7 7 7 8 8 7 7 6 5 5 5 5 6 7 6 6 6 6 6 5 5 5 5 5 6 7 9 9 10 9 6 3 0 -0 -0 0 1
10 10 9 9 9 9 9 9 9 9 9 9 9 8 8 8 8 8 7 7 7 7 6 5 4 4 5 4 5 6 7 6 5 5 5 4 3 4 4 4 4 5 7 8 9 10 10 7 3 -0 -1 -1 -1 -1
10 10 9 9 9 9 9 9 9 10 10 10 9 9 9 9 8 7 7 7 6 6 5 4 4 4 4 5 5 6 6 5 5 5 4 3 2 3 4 4 4 4 6 8 9 10 10 7 3 0 -1 -2 -2 -2
9 9 9 9 9 9 9 9 9 10 10 10 10 9 8 8 7 6 6 6 6 5 4 4 4 4 4 4 5 5 5 4 4 4 3 2 2 3 3 3 3 4 6 8 9 10 9 6 2 0 -2 -3 -4 -4
9 9 9 9 9 9 9 9 9 10 10 10 9 8 7 6 6 5 6 6 5 5 4 4 4 3 3 4 4 4 4 3 3 2 2 2 1 1 1 2 2 4 6 8 9 9 7 3 1 -0 -2 -4 -5 -6
9 9 9 9 9 9 9 10 10 10 10 10 9 7 6 6 6 6 6 6 6 5 5 5 4 3 3 3 3 3 3 2 2 1 1 1 0 -0 0 1 2 4 7 8 8 6 3 1 -1 -2 -3 -5 -6 -8
9 9 9 9 9 9 9 10 10 10 10 9 8 6 6 6 5 6 6 6 6 6 6 5 4 3 3 3 3 2 2 2 2 1 1 0 -1 -1 -0 1 3 5 6 6 5 2 0 -1 -2 -3 -4 -6 -7 -9
9 9 9 9 9 9 9 10 10 9 9 8 7 6 6 6 5 5 6 6 6 6 6 5 4 3 3 3 3 2 2 2 2 2 1 0 -1 -1 -1 1 2 4 4 3 2 1 -1 -2 -3 -4 -6 -7 -8 -9
9 9 9 9 9 9 9 9 9 9 7 6 6 6 6 6 5 5 6 6 7 6 6 5 4 4 3 3 3 3 3 3 3 2 1 0 -0 -1 -0 0 1 1 1 1 1 0 -1 -2 -4 -5 -6 -7 -8 -9
9 9 9 9 9 9 9 9 9 8 6 6 5 5 5 5 5 5 6 6 6 6 6 5 5 4 3 3 3 3 3 3 3 3 2 1 -0 -0 -1 -1 -1 -1 -1 -1 -1 -1 -1 -2 -3 -5 -6 -7 -8 -8
9 9 9 9 9 9 9 9 8 7 6 5 5 5 4 4 5 5 5 5 5 5 5 4 4 4 4 4 4 4 4 4 4 3 3 1 0 -0 -1 -1 -2 -2 -2 -2 -2 -2 -2 -2 -3 -4 -5 -6 -7 -7
9 9 9 9 9 9 8 8 7 6 5 4 4 4 4 4 4 4 4 4 4 4 4 4 4 4 4 4 4 4 4 4 4 4 3 2 1 1 0 -1 -1 -1 -1 -2 -2 -2 -2 -2 -3 -4 -4 -5 -6 -7
9 9 9 9 8 8 7 7 6 6 5 4 4 3 3 3 3 4 4 4 4 3 3 4 4 4 4 4 4 4 4 4 4 4 4 3 3 3 2 2 1 0 -0 -0 -1 -1 -2 -3 -4 -4 -4 -5 -6 -7
9 9 8 8 7 6 6 6 5 5 4 3 3 3 3 3 3 4 4 4 4 4 4 4 4 4 4 3 3 3 4 4 4 4 4 4 4 4 4 3 2 2 1 1 1 1 -1 -2 -3 -4 -4 -5 -5 -6
8 7 7 6 5 4 4 5 4 4 4 4 4 4 3 3 3 3 3 4 4 4 4 4 4 4 4 4 4 4 4 4 4 4 4 4 4 4 3 3 2 2 2 2 2 2 2 1 -0 -1 -2 -3 -4 -4
5 5 5 4 4 4 4 4 4 4 4 4 4 4 3 3 3 3 3 3 3 3 3 4 4 4 4 4 4 4 4 4 4 3 3 3 4 4 3 2 2 2 2 2 3 3 3 3 3 2 1 0 -1 -1
4 4 4 4 4 4 4 4 3 3 3 3 3 3 3 3 3 3 3 2 2 2 3 4 4 4 4 4 4 4 4 4 3 3 2 3 3 3 3 2 2 3 3 3 3 3 3 3 3 3 3 3 2 2
3 3 3 3 3 4 4 3 2 2 2 2 2 3 3 4 3 3 2 2 1 2 2 3 3 4 3 3 3 3 3 3 3 2 2 2 2 2 2 3 3 3 3 3 3 3 3 3 3 3 3 3 3 4
2 2 3 3 3 3 3 2 2 1 1 1 2 3 3 3 3 2 2 1 1 1 2 2 3 3 3 2 2 2 2 2 2 3 3 3 3 3 3 3 3 3 3 3 3 4 4 3 3 3 3 3 3 3
2 2 2 2 2 2 2 2 1 1 0 1 2 3 3 3 3 3 2 2 2 2 1 2 2 2 2 2 2 2 2 2 2 2 3 3 3 3 3 3 3 4 4 4 4 4 5 4 4 4 3 3 3 3
2 2 2 1 1 2 2 1 1 1 1 1 1 2 2 2 3 4 3 3 3 2 2 2 2 2 2 2 2 2 2 2 2 3 3 3 3 3 3 3 4 4 5 5 5 5 5 6 5 5 5 4 4 4
1 1 1 1 1 1 1 1 1 1 1 1 1 1 2 2 3 4 4 4 4 3 3 3 3 3 3 3 3 3 3 3 3 3 3 3 3 3 3 4 4 5 5 6 6 6 7 7 7 7 6 6 6 6
1 1 1 1 1 1 1 1 1 1 1 1 1 2 2 2 3 3 4 4 4 4 4 4 4 4 4 4 4 4 4 4 4 3 3 3 3 4 4 5 5 5 6 6 7 7 7 7 7 7 7 7 7 7
1 1 1 1 1 1 1 1 1 1 1 1 1 2 2 2 2 3 3 3 4 4 5 5 5 5 5 5 4 4 4 4 4 3 3 3 3 4 5 5 5 5 6 6 7 7 7 7 7 7 7 7 7 7